EW1296 Weather Reports


time (UTC)temp
F
wind
direction
speed
knots
gust
knots
rain 1hr
in
rain 24hr
in
rain mn
in
humidity
%
barometer
mb
20260505214016 80 203 6.1 15.6 0.00 0.00 0.00 37 1007.9
20260505213538 80 158 1.7 11.3 0.00 0.00 0.00 39 1008.0
20260505213037 81 158 2.6 7.8 0.00 0.00 0.00 39 1007.9
20260505212516 82 225 4.3 11.3 0.00 0.00 0.00 35 1007.9
20260505212017 82 225 7.8 17.4 0.00 0.00 0.00 34 1007.8
20260505211536 82 248 6.1 14.8 0.00 0.00 0.00 34 1007.7
20260505211017 83 225 5.2 11.3 0.00 0.00 0.00 34 1007.6
20260505210536 83 225 7.8 15.6 0.00 0.00 0.00 33 1007.6
20260505210016 84 225 6.1 14.8 0.00 0.00 0.00 32 1007.6
20260505205517 84 225 6.1 13.9 0.00 0.00 0.00 32 1007.6
20260505205017 83 225 8.7 14.8 0.00 0.00 0.00 32 1007.6
20260505204516 83 225 6.1 14.8 0.00 0.00 0.00 34 1007.6
20260505204016 83 225 6.1 12.2 0.00 0.00 0.00 34 1007.7
20260505203516 83 180 2.6 11.3 0.00 0.00 0.00 35 1007.7
20260505203037 84 225 4.3 11.3 0.00 0.00 0.00 35 1007.7
20260505202516 83 225 7.0 15.6 0.00 0.00 0.00 31 1007.6
20260505202016 82 225 9.6 18.2 0.00 0.00 0.00 32 1007.7
20260505201516 81 225 8.7 20.9 0.00 0.00 0.00 34 1007.8
20260505201017 80 225 1.7 7.8 0.00 0.00 0.00 39 1007.9
20260505200515 80 158 1.7 7.8 0.00 0.00 0.00 41 1007.9
20260505200016 79 180 1.7 7.0 0.00 0.00 0.00 44 1008.0
20260505195537 79 113 2.6 7.0 0.00 0.00 0.00 45 1008.1
20260505195016 79 135 0.9 5.2 0.00 0.00 0.00 45 1008.1
20260505194516 79 135 2.6 8.7 0.00 0.00 0.00 45 1008.2
20260505194016 79 135 1.7 6.1 0.00 0.00 0.00 46 1008.2
20260505193515 78 113 2.6 7.0 0.00 0.00 0.00 47 1008.3
20260505193015 78 135 1.7 4.3 0.00 0.00 0.00 48 1008.4
20260505192516 78 135 1.7 5.2 0.00 0.00 0.00 48 1008.6
20260505192016 78 135 1.7 4.3 0.00 0.00 0.00 48 1008.6
20260505191516 78 113 3.5 8.7 0.00 0.00 0.00 47 1008.7
20260505191035 78 135 2.6 6.1 0.00 0.00 0.00 46 1008.7
20260505190516 78 135 1.7 7.0 0.00 0.00 0.00 48 1008.9
20260505190015 77 135 1.7 6.1 0.00 0.00 0.00 49 1009.1
20260505185515 77 135 3.5 7.8 0.00 0.00 0.00 50 1009.2
20260505185017 76 135 3.5 7.0 0.00 0.00 0.00 49 1009.3
20260505184515 76 135 3.5 9.6 0.00 0.00 0.00 50 1009.3
20260505184017 76 113 3.5 7.8 0.00 0.00 0.00 49 1009.3
20260505183515 77 113 4.3 9.6 0.00 0.00 0.00 49 1009.4
20260505183016 77 113 3.5 8.7 0.00 0.00 0.00 48 1009.5
20260505182516 77 135 2.6 7.0 0.00 0.00 0.00 48 1009.6
20260505182017 77 135 3.5 7.8 0.00 0.00 0.00 49 1009.6
20260505181535 76 113 3.5 7.8 0.00 0.00 0.00 49 1009.5
20260505181057 76 113 3.5 8.7 0.00 0.00 0.00 49 1009.6
20260505180515 77 135 3.5 7.8 0.00 0.00 0.00 48 1009.7
20260505180015 77 113 3.5 8.7 0.00 0.00 0.00 47 1009.7
20260505175537 78 135 3.5 8.7 0.00 0.00 0.00 47 1009.8
20260505175017 78 135 4.3 8.7 0.00 0.00 0.00 46 1009.7
20260505174515 78 113 2.6 7.0 0.00 0.00 0.00 46 1009.7
20260505174036 78 135 2.6 7.0 0.00 0.00 0.00 46 1009.8
20260505173515 78 135 3.5 8.7 0.00 0.00 0.00 47 1009.9
20260505173015 78 113 4.3 7.8 0.00 0.00 0.00 46 1009.9
20260505172515 78 135 3.5 8.7 0.00 0.00 0.00 46 1009.9
20260505172015 78 113 3.5 7.8 0.00 0.00 0.00 46 1009.9
20260505171515 78 113 4.3 10.4 0.00 0.00 0.00 45 1010.0
20260505171015 79 113 4.3 9.6 0.00 0.00 0.00 45 1010.0
20260505170516 78 113 3.5 6.1 0.00 0.00 0.00 46 1010.0
20260505170015 78 113 4.3 8.7 0.00 0.00 0.00 45 1010.1
20260505165517 78 113 4.3 7.8 0.00 0.00 0.00 45 1010.2
20260505165016 79 113 4.3 8.7 0.00 0.00 0.00 44 1010.2
20260505164519 79 135 3.5 8.7 0.00 0.00 0.00 44 1010.3
20260505164018 79 135 3.5 7.8 0.00 0.00 0.00 44 1010.4
20260505163518 79 113 2.6 7.0 0.00 0.00 0.00 44 1010.3
20260505163057 79 135 2.6 7.0 0.00 0.00 0.00 44 1010.4
20260505162517 79 135 2.6 7.0 0.00 0.00 0.00 44 1010.4
20260505162017 78 113 0.9 7.0 0.00 0.00 0.00 46 1010.6
20260505161517 77 135 2.6 6.1 0.00 0.00 0.00 46 1010.6
20260505161017 77 135 3.5 7.0 0.00 0.00 0.00 46 1010.6
20260505160517 77 113 2.6 7.8 0.00 0.00 0.00 47 1010.8
20260505153017 79 225 2.6 7.8 0.00 0.00 0.00 44 1011.0
20260505152517 78 135 0.9 2.6 0.00 0.00 0.00 44 1010.8
20260505152017 78 225 1.7 7.0 0.00 0.00 0.00 45 1011.0
20260505151517 77 203 1.7 4.3 0.00 0.00 0.00 46 1011.1
20260505151018 77 225 2.6 7.0 0.00 0.00 0.00 47 1011.3
20260505150518 77 248 1.7 7.0 0.00 0.00 0.00 47 1011.4
20260505140518 73 225 2.6 7.0 0.00 0.00 0.00 55 1011.7
20260505125017 67 225 3.5 10.4 0.00 0.00 0.00 65 1011.5
20260505124517 67 225 3.5 7.0 0.00 0.00 0.00 65 1011.4
20260505124017 67 225 2.6 7.8 0.00 0.00 0.00 65 1011.3
20260505123517 67 225 2.6 7.0 0.00 0.00 0.00 65 1011.3
20260505123038 67 225 2.6 7.0 0.00 0.00 0.00 65 1011.3
20260505122517 67 203 0.9 4.3 0.00 0.00 0.00 65 1011.3
20260505122017 67 225 1.7 5.2 0.00 0.00 0.00 65 1011.3
20260505121517 67 225 1.7 6.1 0.00 0.00 0.00 66 1011.3
20260505121039 67 0.0 1.7 0.00 0.00 0.00 67 1011.3
20260505120517 66 0.0 3.5 0.00 0.00 0.00 68 1011.2
20260505120037 65 225 0.9 4.3 0.00 0.00 0.00 69 1011.2
20260505115518 65 225 0.9 3.5 0.00 0.00 0.00 69 1011.2
20260505115038 65 0.0 1.7 0.00 0.00 0.00 70 1011.3
20260505114537 64 248 0.9 2.6 0.00 0.00 0.00 71 1011.3
20260505114017 64 0.0 1.7 0.00 0.00 0.00 71 1011.3
20260505113537 63 225 0.9 4.3 0.00 0.00 0.00 72 1011.4
20260505113017 62 225 1.7 4.3 0.00 0.00 0.00 72 1011.4
20260505112517 62 225 1.7 3.5 0.00 0.00 0.00 72 1011.4
20260505112018 62 203 1.7 3.5 0.00 0.00 0.00 72 1011.4
20260505111517 62 225 1.7 4.3 0.00 0.00 0.00 73 1011.4
20260505111017 61 225 0.9 3.5 0.00 0.00 0.00 73 1011.3
20260505110516 61 225 1.7 3.5 0.00 0.00 0.00 73 1011.4
20260505102017 59 270 1.7 5.2 0.00 0.00 0.00 78 1011.3
20260505101517 59 248 0.9 2.6 0.00 0.00 0.00 78 1011.2
20260505101017 59 248 1.7 3.5 0.00 0.00 0.00 78 1011.0
20260505100516 59 225 0.9 4.3 0.00 0.00 0.00 78 1010.7
20260505100017 59 225 2.6 4.3 0.00 0.00 0.00 78 1010.7
20260505095537 59 225 2.6 7.8 0.00 0.00 0.00 79 1010.6
20260505095017 58 225 2.6 6.1 0.00 0.00 0.00 79 1010.5
20260505094517 58 225 2.6 6.1 0.00 0.00 0.00 80 1010.4
20260505094017 58 225 2.6 7.0 0.00 0.00 0.00 80 1010.4
20260505093518 57 225 1.7 4.3 0.00 0.00 0.00 80 1010.2
20260505093018 57 225 1.7 5.2 0.00 0.00 0.00 81 1010.2
20260505092537 57 225 0.9 3.5 0.00 0.00 0.00 81 1010.3
20260505092017 57 0.0 0.9 0.00 0.00 0.00 80 1010.3
20260505091517 57 0.0 0.0 0.00 0.00 0.00 80 1010.3
20260505091017 57 0.0 0.0 0.00 0.00 0.00 80 1010.4
20260505090517 57 0.0 0.0 0.00 0.00 0.00 80 1010.4
20260505090016 57 0.0 0.0 0.00 0.00 0.00 80 1010.4
20260505085517 57 0.0 1.7 0.00 0.00 0.00 80 1010.5
20260505085017 57 0.0 0.9 0.00 0.00 0.00 80 1010.4
20260505084517 57 0.0 0.0 0.00 0.00 0.00 80 1010.3
20260505084017 57 0.0 0.0 0.00 0.00 0.00 80 1010.3
20260505083517 57 0.0 0.9 0.00 0.00 0.00 80 1010.4
20260505083037 57 0.0 0.9 0.00 0.00 0.00 80 1010.3
20260505082536 57 0.0 0.0 0.00 0.00 0.00 80 1010.3
20260505082016 57 0.0 0.9 0.00 0.00 0.00 79 1010.3
20260505081518 57 0.0 0.9 0.00 0.00 0.00 79 1010.3
20260505081016 57 0.0 0.0 0.00 0.00 0.00 79 1010.3
20260505080516 57 0.0 0.0 0.00 0.00 0.00 79 1010.4
20260505080038 57 0.0 0.0 0.00 0.00 0.00 79 1010.5
20260505075518 57 0.0 0.9 0.00 0.00 0.00 79 1010.4
20260505075036 57 0.0 1.7 0.00 0.00 0.00 79 1010.4
20260505074517 57 0.0 0.9 0.00 0.00 0.00 79 1010.3
20260505074017 57 0.0 0.0 0.00 0.00 0.00 79 1010.3
20260505073517 57 0.0 1.7 0.00 0.00 0.00 79 1010.2
20260505073018 57 0.0 0.0 0.00 0.00 0.00 78 1010.3
20260505072517 57 0.0 0.0 0.00 0.00 0.00 78 1010.2
20260505072018 57 0.0 0.0 0.00 0.00 0.00 78 1010.2
20260505071556 57 0.0 0.9 0.00 0.00 0.00 78 1010.2
20260505071037 57 0.0 0.9 0.00 0.00 0.00 78 1010.2
20260505070516 57 0.0 0.0 0.00 0.00 0.00 77 1010.2
20260505070036 57 0.0 0.9 0.00 0.00 0.00 77 1010.2
20260505065516 57 0.0 0.9 0.00 0.00 0.00 76 1010.3
20260505065016 57 0.0 0.0 0.00 0.00 0.00 76 1010.2
20260505064516 57 0.0 0.0 0.00 0.00 0.00 75 1010.1
20260505064016 57 0.0 0.9 0.00 0.00 0.00 75 1010.2
20260505063517 58 0.0 0.0 0.00 0.00 0.00 75 1010.2
20260505063017 58 0.0 0.9 0.00 0.00 0.00 74 1010.3
20260505062517 58 0.0 0.0 0.00 0.00 0.00 74 1010.3
20260505062016 58 0.0 0.9 0.00 0.00 0.00 74 1010.3
20260505061516 58 0.0 1.7 0.00 0.00 0.00 73 1010.2
20260505061037 59 158 0.9 1.7 0.00 0.00 0.00 73 1010.2
20260505060536 59 135 0.9 2.6 0.00 0.00 0.00 72 1010.3
20260505060016 59 135 0.9 2.6 0.00 0.00 0.00 71 1010.3
20260505055516 59 135 0.9 2.6 0.00 0.00 0.00 71 1010.3
20260505055036 59 0.0 2.6 0.00 0.00 0.00 71 1010.3
20260505054618 59 0.0 1.7 0.00 0.00 0.00 71 1010.3
20260505054016 59 0.0 1.7 0.00 0.00 0.00 71 1010.3
20260505053516 59 135 0.9 7.8 0.00 0.00 0.00 71 1010.4
20260505053036 59 0.0 4.3 0.00 0.00 0.00 71 1010.4
20260505052516 59 0.0 1.7 0.00 0.00 0.00 71 1010.5
20260505052016 59 0.0 1.7 0.00 0.00 0.00 71 1010.5
20260505051516 59 0.0 0.9 0.00 0.00 0.00 71 1010.6
20260505051016 59 0.0 0.9 0.00 0.00 0.00 71 1010.6
20260505050516 59 0.0 2.6 0.00 0.00 0.00 71 1010.6
20260505041516 59 0.0 0.9 0.00 0.00 0.00 70 1010.9
20260505041016 59 0.0 2.6 0.00 0.00 0.00 70 1010.9
20260505040517 60 0.0 1.7 0.00 0.00 0.00 70 1011.0
20260505040037 60 158 0.9 1.7 0.00 0.00 0.00 70 1011.0
20260505035517 60 0.0 1.7 0.00 0.00 0.00 69 1011.0
20260505035017 60 0.0 2.6 0.00 0.00 0.00 69 1011.0
20260505034517 60 0.0 1.7 0.00 0.00 0.00 68 1011.0
20260505034037 60 225 0.9 2.6 0.00 0.00 0.00 68 1011.0
20260505033517 60 0.0 1.7 0.00 0.00 0.00 68 1011.0
20260505033017 60 203 0.9 4.3 0.00 0.00 0.00 68 1011.1
20260505032518 60 225 1.7 4.3 0.00 0.00 0.00 67 1011.0
20260505032016 60 203 0.9 3.5 0.00 0.00 0.00 67 1011.1
20260505031518 60 203 1.7 5.2 0.00 0.00 0.00 67 1011.2
20260505031037 60 225 1.7 7.0 0.00 0.00 0.00 66 1011.2
20260505030537 60 225 0.9 7.0 0.00 0.00 0.00 65 1011.1
20260505030017 61 203 1.7 5.2 0.00 0.00 0.00 65 1011.2
20260505025518 61 203 2.6 9.6 0.00 0.00 0.00 64 1011.2
20260505025016 61 225 2.6 10.4 0.00 0.00 0.00 64 1011.3
20260505024516 61 203 0.9 3.5 0.00 0.00 0.00 63 1011.3
20260505024016 61 225 1.7 7.0 0.00 0.00 0.00 63 1011.3
20260505023518 61 225 3.5 7.8 0.00 0.00 0.00 62 1011.3
20260505023017 62 203 1.7 6.1 0.00 0.00 0.00 62 1011.3
20260505022517 62 225 1.7 4.3 0.00 0.00 0.00 61 1011.3
20260505022036 62 203 2.6 9.6 0.00 0.00 0.00 60 1011.4
20260505021518 62 225 4.3 11.3 0.00 0.00 0.00 60 1011.5
20260505021017 62 203 4.3 8.7 0.00 0.00 0.00 58 1011.4
20260505020518 63 225 3.5 9.6 0.00 0.00 0.00 58 1011.4
20260505020017 63 225 3.5 8.7 0.00 0.00 0.00 57 1011.3
20260505015516 63 225 3.5 8.7 0.00 0.00 0.00 57 1011.2
20260505015017 63 225 3.5 9.6 0.00 0.00 0.00 56 1011.2
20260505014516 63 225 3.5 9.6 0.00 0.00 0.00 56 1011.2
20260505014017 63 225 2.6 8.7 0.00 0.00 0.00 56 1011.2
20260505013518 64 225 3.5 8.7 0.00 0.00 0.00 56 1011.2
20260505013056 64 225 3.5 7.0 0.00 0.00 0.00 56 1011.2
20260505012618 64 225 3.5 8.7 0.00 0.00 0.00 55 1011.1
20260505012016 64 225 3.5 8.7 0.00 0.00 0.00 56 1010.9
20260505011537 64 225 2.6 7.8 0.00 0.00 0.00 56 1010.9
20260505011018 64 225 2.6 8.7 0.00 0.00 0.00 55 1010.8
20260505010517 64 225 2.6 7.0 0.00 0.00 0.00 55 1010.8
20260505010016 64 225 2.6 8.7 0.00 0.00 0.00 55 1010.7
20260505005537 64 225 3.5 9.6 0.00 0.00 0.00 54 1010.5
20260505005016 64 225 2.6 7.0 0.00 0.00 0.00 55 1010.5
20260505004518 64 203 2.6 10.4 0.00 0.00 0.00 56 1010.5
20260505004016 64 225 2.6 7.0 0.00 0.00 0.00 57 1010.4
20260505003517 64 203 2.6 10.4 0.00 0.00 0.00 58 1010.3
20260505003016 64 180 1.7 7.8 0.00 0.00 0.00 59 1010.4
20260505002558 64 225 2.6 7.0 0.00 0.00 0.00 59 1010.2
20260505002037 64 225 2.6 7.8 0.00 0.00 0.00 59 1010.1
20260505001516 64 225 2.6 6.1 0.00 0.00 0.00 59 1010.1
20260505001017 64 225 2.6 7.8 0.00 0.00 0.00 59 1010.0
20260505000517 65 225 2.6 8.7 0.00 0.00 0.00 59 1009.9
20260505000017 65 225 2.6 7.0 0.00 0.00 0.00 59 1009.9
20260504235517 65 225 2.6 6.1 0.00 0.00 0.00 58 1009.8
20260504235016 65 203 1.7 5.2 0.00 0.00 0.00 58 1009.8
20260504234516 66 225 2.6 7.0 0.00 0.00 0.00 58 1009.7
20260504234038 66 225 1.7 5.2 0.00 0.00 0.00 58 1009.6
20260504233516 66 225 2.6 7.8 0.00 0.00 0.00 57 1009.5
20260504233016 66 225 1.7 7.0 0.00 0.00 0.00 57 1009.4
20260504232516 66 135 0.9 3.5 0.00 0.00 0.00 57 1009.4
20260504232016 67 135 0.9 2.6 0.00 0.00 0.00 56 1009.4
20260504231516 67 135 0.9 1.7 0.00 0.00 0.00 56 1009.3
20260504231016 67 135 1.7 7.0 0.00 0.00 0.00 55 1009.3
20260504230516 67 135 0.9 6.1 0.00 0.00 0.00 53 1009.3
20260504230017 68 158 0.9 4.3 0.00 0.00 0.00 52 1009.2
20260504225536 68 158 0.9 2.6 0.00 0.00 0.00 52 1009.2
20260504225017 68 135 0.9 2.6 0.00 0.00 0.00 53 1009.2
20260504224516 68 135 0.9 3.5 0.00 0.00 0.00 53 1009.3
20260504224016 68 180 0.9 3.5 0.00 0.00 0.00 52 1009.3
20260504223516 68 135 0.9 2.6 0.00 0.00 0.00 52 1009.2
20260504223017 68 135 1.7 7.0 0.00 0.00 0.00 52 1009.3
20260504222517 69 158 0.9 4.3 0.00 0.00 0.00 51 1009.3
20260504222016 69 180 1.7 4.3 0.00 0.00 0.00 50 1009.3
20260504221516 68 158 1.7 6.1 0.00 0.00 0.00 50 1009.3
20260504221016 69 135 2.6 7.0 0.00 0.00 0.00 52 1009.4
20260504220517 69 135 3.5 8.7 0.00 0.00 0.00 52 1009.4
20260504220018 70 135 1.7 6.1 0.00 0.00 0.00 50 1009.4
20260504215516 71 135 1.7 5.2 0.00 0.00 0.00 48 1009.5
20260504215016 71 158 1.7 7.8 0.00 0.00 0.00 46 1009.5
20260504214516 71 180 0.9 3.5 0.00 0.00 0.00 45 1009.6